Time,TemperatureF,DewpointF,PressureIn,WindDirection,WindDirectionDegrees,WindSpeedMPH,WindSpeedGustMPH,Humidity,HourlyPrecipIn,Conditions,Clouds,dailyrainin,SoftwareType,DateUTC
2013-02-17 00:07:00,42.9,40.0,30.17,NE,38,0.0,-999.0,89,-99.99,,,0.00,weatherlink.com 1.10,2013-02-17 08:07:00,
2013-02-17 00:22:00,42.9,40.0,30.17,ENE,74,0.0,-999.0,88,-99.99,,,0.00,weatherlink.com 1.10,2013-02-17 08:22:00,
2013-02-17 00:37:00,42.8,40.0,30.18,SSW,213,0.0,-999.0,88,-99.99,,,0.00,weatherlink.com 1.10,2013-02-17 08:37:00,
2013-02-17 00:52:00,42.6,39.0,30.18,SSW,194,0.0,-999.0,88,-99.99,,,0.00,weatherlink.com 1.10,2013-02-17 08:52:00,
2013-02-17 01:07:00,41.7,39.0,30.17,SSW,194,0.0,-999.0,89,-99.99,,,0.00,weatherlink.com 1.10,2013-02-17 09:07:00,
2013-02-17 01:22:00,41.0,40.0,30.18,SSW,194,0.0,-999.0,95,-99.99,,,0.00,weatherlink.com 1.10,2013-02-17 09:22:00,
2013-02-17 01:37:00,40.9,39.0,30.18,South,184,0.0,-999.0,91,-99.99,,,0.00,weatherlink.com 1.10,2013-02-17 09:37:00,
2013-02-17 01:52:00,41.2,39.0,30.18,South,183,0.0,-999.0,92,-99.99,,,0.00,weatherlink.com 1.10,2013-02-17 09:52:00,
2013-02-17 02:07:00,41.5,39.0,30.18,South,189,0.0,-999.0,91,-99.99,,,0.00,weatherlink.com 1.10,2013-02-17 10:07:00,
2013-02-17 02:23:00,41.8,39.0,30.18,SW,230,0.0,-999.0,90,-99.99,,,0.00,weatherlink.com 1.10,2013-02-17 10:23:00,
2013-02-17 02:37:00,42.0,39.0,30.18,North,360,0.0,-999.0,90,-99.99,,,0.00,weatherlink.com 1.10,2013-02-17 10:37:00,
2013-02-17 02:53:00,41.8,39.0,30.17,NE,37,0.0,-999.0,90,-99.99,,,0.00,weatherlink.com 1.10,2013-02-17 10:53:00,
2013-02-17 03:08:00,41.5,39.0,30.17,NE,35,0.0,-999.0,90,-99.99,,,0.00,weatherlink.com 1.10,2013-02-17 11:08:00,
2013-02-17 03:23:00,40.5,38.0,30.18,NE,35,0.0,-999.0,91,-99.99,,,0.00,weatherlink.com 1.10,2013-02-17 11:23:00,
2013-02-17 03:38:00,40.0,38.0,30.17,NNE,23,0.0,-999.0,91,-99.99,,,0.00,weatherlink.com 1.10,2013-02-17 11:38:00,
2013-02-17 03:53:00,39.7,38.0,30.17,NNE,23,0.0,-999.0,92,-99.99,,,0.00,weatherlink.com 1.10,2013-02-17 11:53:00,
2013-02-17 04:08:00,39.7,38.0,30.17,NNE,23,0.0,-999.0,92,-99.99,,,0.00,weatherlink.com 1.10,2013-02-17 12:08:00,
2013-02-17 04:23:00,39.4,37.0,30.17,NNE,23,0.0,-999.0,92,-99.99,,,0.00,weatherlink.com 1.10,2013-02-17 12:23:00,
2013-02-17 04:38:00,39.5,38.0,30.17,NNE,23,0.0,-999.0,93,-99.99,,,0.00,weatherlink.com 1.10,2013-02-17 12:38:00,
2013-02-17 04:53:00,39.6,38.0,30.18,NNE,23,0.0,-999.0,93,-99.99,,,0.00,weatherlink.com 1.10,2013-02-17 12:53:00,
2013-02-17 05:08:00,39.8,38.0,30.17,NNE,23,0.0,-999.0,93,-99.99,,,0.00,weatherlink.com 1.10,2013-02-17 13:08:00,
2013-02-17 05:23:00,39.9,38.0,30.16,NNE,23,0.0,-999.0,93,-99.99,,,0.00,weatherlink.com 1.10,2013-02-17 13:23:00,
2013-02-17 05:38:00,39.9,38.0,30.17,NNE,23,0.0,-999.0,92,-99.99,,,0.00,weatherlink.com 1.10,2013-02-17 13:38:00,
2013-02-17 05:53:00,39.9,38.0,30.16,ENE,57,0.0,-999.0,92,-99.99,,,0.00,weatherlink.com 1.10,2013-02-17 13:53:00,
2013-02-17 06:08:00,40.0,38.0,30.17,ESE,112,0.0,-999.0,91,-99.99,,,0.00,weatherlink.com 1.10,2013-02-17 14:08:00,
2013-02-17 06:23:00,40.0,38.0,30.17,SE,132,0.0,-999.0,92,-99.99,,,0.01,weatherlink.com 1.10,2013-02-17 14:23:00,
2013-02-17 06:38:00,39.7,38.0,30.17,SE,132,1.0,-999.0,92,-99.99,,,0.01,weatherlink.com 1.10,2013-02-17 14:38:00,
2013-02-17 06:53:00,39.1,37.0,30.17,SE,146,2.0,-999.0,93,-99.99,,,0.01,weatherlink.com 1.10,2013-02-17 14:53:00,
2013-02-17 07:08:00,38.9,37.0,30.17,SSW,197,0.0,-999.0,93,-99.99,,,0.01,weatherlink.com 1.10,2013-02-17 15:08:00,
2013-02-17 07:23:00,38.6,37.0,30.17,SW,236,0.0,-999.0,93,-99.99,,,0.01,weatherlink.com 1.10,2013-02-17 15:23:00,
2013-02-17 07:38:00,38.6,37.0,30.17,WSW,238,0.0,-999.0,93,-99.99,,,0.01,weatherlink.com 1.10,2013-02-17 15:38:00,
2013-02-17 07:53:00,38.8,37.0,30.17,WSW,238,0.0,-999.0,93,-99.99,,,0.02,weatherlink.com 1.10,2013-02-17 15:53:00,
2013-02-17 08:08:00,39.5,38.0,30.17,WSW,239,0.0,-999.0,93,-99.99,,,0.02,weatherlink.com 1.10,2013-02-17 16:08:00,
2013-02-17 08:23:00,40.1,38.0,30.18,WSW,239,0.0,-999.0,93,-99.99,,,0.02,weatherlink.com 1.10,2013-02-17 16:23:00,
2013-02-17 08:38:00,40.9,39.0,30.18,WSW,239,0.0,-999.0,93,-99.99,,,0.02,weatherlink.com 1.10,2013-02-17 16:38:00,
2013-02-17 08:53:00,41.1,39.0,30.18,WSW,239,0.0,-999.0,91,-99.99,,,0.02,weatherlink.com 1.10,2013-02-17 16:53:00,
2013-02-17 09:08:00,41.3,39.0,30.18,WSW,238,0.0,-999.0,91,-99.99,,,0.02,weatherlink.com 1.10,2013-02-17 17:08:00,
2013-02-17 09:23:00,42.4,39.0,30.18,South,191,0.0,-999.0,89,-99.99,,,0.02,weatherlink.com 1.10,2013-02-17 17:23:00,
2013-02-17 09:38:00,43.1,40.0,30.18,South,190,1.0,-999.0,90,-99.99,,,0.02,weatherlink.com 1.10,2013-02-17 17:38:00,
2013-02-17 09:53:00,43.8,40.0,30.18,SE,138,0.0,-999.0,86,-99.99,,,0.02,weatherlink.com 1.10,2013-02-17 17:53:00,
2013-02-17 10:08:00,45.0,40.0,30.18,SE,134,0.0,-999.0,83,-99.99,,,0.02,weatherlink.com 1.10,2013-02-17 18:08:00,
2013-02-17 10:23:00,45.8,41.0,30.18,SE,135,0.0,-999.0,82,-99.99,,,0.02,weatherlink.com 1.10,2013-02-17 18:23:00,
2013-02-17 10:38:00,45.8,39.0,30.19,WSW,255,2.0,-999.0,78,-99.99,,,0.02,weatherlink.com 1.10,2013-02-17 18:38:00,
2013-02-17 10:53:00,46.1,40.0,30.18,WSW,252,0.0,-999.0,79,-99.99,,,0.02,weatherlink.com 1.10,2013-02-17 18:53:00,
2013-02-17 11:08:00,45.6,39.0,30.18,West,269,4.0,-999.0,78,-99.99,,,0.02,weatherlink.com 1.10,2013-02-17 19:08:00,
2013-02-17 11:23:00,45.4,39.0,30.18,West,278,0.0,-999.0,79,-99.99,,,0.02,weatherlink.com 1.10,2013-02-17 19:23:00,
2013-02-17 11:38:00,46.1,39.0,30.18,South,185,4.0,-999.0,76,-99.99,,,0.02,weatherlink.com 1.10,2013-02-17 19:38:00,
2013-02-17 11:53:00,46.6,38.0,30.18,SW,227,0.0,-999.0,73,-99.99,,,0.02,weatherlink.com 1.10,2013-02-17 19:53:00,
2013-02-17 12:08:00,48.0,38.0,30.18,SSW,209,0.0,-999.0,68,-99.99,,,0.02,weatherlink.com 1.10,2013-02-17 20:08:00,
2013-02-17 12:23:00,48.3,37.0,30.17,SSW,207,0.0,-999.0,66,-99.99,,,0.02,weatherlink.com 1.10,2013-02-17 20:23:00,
2013-02-17 12:38:00,47.8,38.0,30.17,NE,50,4.0,-999.0,69,-99.99,,,0.02,weatherlink.com 1.10,2013-02-17 20:38:00,
2013-02-17 12:53:00,45.9,37.0,30.17,NE,53,7.0,-999.0,72,-99.99,,,0.02,weatherlink.com 1.10,2013-02-17 20:53:00,
2013-02-17 13:08:00,45.5,39.0,30.17,NE,51,7.0,-999.0,77,-99.99,,,0.02,weatherlink.com 1.10,2013-02-17 21:08:00,
2013-02-17 13:23:00,45.2,39.0,30.16,ENE,60,5.0,-999.0,78,-99.99,,,0.02,weatherlink.com 1.10,2013-02-17 21:23:00,
2013-02-17 13:38:00,45.0,39.0,30.16,NE,51,7.0,-999.0,80,-99.99,,,0.02,weatherlink.com 1.10,2013-02-17 21:38:00,
2013-02-17 13:53:00,44.8,39.0,30.16,NE,55,6.0,-999.0,80,-99.99,,,0.02,weatherlink.com 1.10,2013-02-17 21:53:00,
2013-02-17 14:08:00,44.9,39.0,30.15,ENE,76,6.0,-999.0,79,-99.99,,,0.02,weatherlink.com 1.10,2013-02-17 22:08:00,
2013-02-17 14:23:00,44.9,38.0,30.15,ENE,72,2.0,-999.0,78,-99.99,,,0.02,weatherlink.com 1.10,2013-02-17 22:23:00,
2013-02-17 14:38:00,44.9,38.0,30.15,East,83,3.0,-999.0,77,-99.99,,,0.02,weatherlink.com 1.10,2013-02-17 22:38:00,
2013-02-17 14:53:00,45.0,38.0,30.14,ENE,61,4.0,-999.0,76,-99.99,,,0.02,weatherlink.com 1.10,2013-02-17 22:53:00,
2013-02-17 15:08:00,45.0,38.0,30.14,ENE,78,2.0,-999.0,75,-99.99,,,0.02,weatherlink.com 1.10,2013-02-17 23:08:00,
2013-02-17 15:23:00,45.1,38.0,30.14,ENE,74,1.0,-999.0,77,-99.99,,,0.02,weatherlink.com 1.10,2013-02-17 23:23:00,
2013-02-17 15:38:00,45.0,38.0,30.14,ENE,72,2.0,-999.0,77,-99.99,,,0.02,weatherlink.com 1.10,2013-02-17 23:38:00,
2013-02-17 15:53:00,45.2,38.0,30.14,East,101,2.0,-999.0,77,-99.99,,,0.02,weatherlink.com 1.10,2013-02-17 23:53:00,
2013-02-17 16:08:00,45.3,39.0,30.14,ESE,119,3.0,-999.0,78,-99.99,,,0.02,weatherlink.com 1.10,2013-02-18 00:08:00,
2013-02-17 16:23:00,45.3,39.0,30.14,ESE,106,0.0,-999.0,78,-99.99,,,0.02,weatherlink.com 1.10,2013-02-18 00:23:00,
2013-02-17 16:38:00,45.3,39.0,30.14,ESE,113,2.0,-999.0,79,-99.99,,,0.02,weatherlink.com 1.10,2013-02-18 00:38:00,
2013-02-17 16:53:00,44.8,40.0,30.14,SW,236,2.0,-999.0,82,-99.99,,,0.02,weatherlink.com 1.10,2013-02-18 00:53:00,
2013-02-17 17:08:00,44.0,40.0,30.13,SW,229,0.0,-999.0,85,-99.99,,,0.03,weatherlink.com 1.10,2013-02-18 01:08:00,
2013-02-17 17:23:00,43.2,40.0,30.13,WSW,244,1.0,-999.0,87,-99.99,,,0.03,weatherlink.com 1.10,2013-02-18 01:23:00,
2013-02-17 17:38:00,42.6,40.0,30.13,WSW,244,0.0,-999.0,90,-99.99,,,0.04,weatherlink.com 1.10,2013-02-18 01:38:00,
2013-02-17 17:53:00,42.3,40.0,30.13,WSW,244,0.0,-999.0,91,-99.99,,,0.04,weatherlink.com 1.10,2013-02-18 01:53:00,
2013-02-17 18:08:00,41.8,40.0,30.13,WSW,244,0.0,-999.0,92,-99.99,,,0.04,weatherlink.com 1.10,2013-02-18 02:08:00,
2013-02-17 18:23:00,41.5,39.0,30.13,WSW,244,2.0,-999.0,92,-99.99,,,0.04,weatherlink.com 1.10,2013-02-18 02:23:00,
2013-02-17 18:38:00,41.4,40.0,30.13,WSW,244,0.0,-999.0,93,-99.99,,,0.04,weatherlink.com 1.10,2013-02-18 02:38:00,
2013-02-17 18:53:00,41.1,40.0,30.13,WSW,244,0.0,-999.0,94,-99.99,,,0.04,weatherlink.com 1.10,2013-02-18 02:53:00,
2013-02-17 19:08:00,41.1,40.0,30.12,WSW,244,0.0,-999.0,94,-99.99,,,0.04,weatherlink.com 1.10,2013-02-18 03:08:00,
2013-02-17 19:23:00,40.9,39.0,30.12,WSW,244,0.0,-999.0,94,-99.99,,,0.04,weatherlink.com 1.10,2013-02-18 03:23:00,
2013-02-17 19:38:00,40.4,39.0,30.13,WSW,244,0.0,-999.0,94,-99.99,,,0.04,weatherlink.com 1.10,2013-02-18 03:38:00,
2013-02-17 19:53:00,39.5,38.0,30.12,WSW,244,2.0,-999.0,94,-99.99,,,0.04,weatherlink.com 1.10,2013-02-18 03:53:00,
2013-02-17 20:08:00,38.8,37.0,30.12,WSW,244,1.0,-999.0,94,-99.99,,,0.04,weatherlink.com 1.10,2013-02-18 04:08:00,
2013-02-17 20:23:00,38.4,37.0,30.12,WSW,244,2.0,-999.0,95,-99.99,,,0.04,weatherlink.com 1.10,2013-02-18 04:23:00,
2013-02-17 20:38:00,38.3,37.0,30.12,WSW,244,2.0,-999.0,95,-99.99,,,0.04,weatherlink.com 1.10,2013-02-18 04:38:00,
2013-02-17 20:53:00,38.4,37.0,30.11,WSW,244,2.0,-999.0,95,-99.99,,,0.04,weatherlink.com 1.10,2013-02-18 04:53:00,
2013-02-17 21:08:00,38.7,37.0,30.11,WSW,244,1.0,-999.0,95,-99.99,,,0.04,weatherlink.com 1.10,2013-02-18 05:08:00,
2013-02-17 21:23:00,38.6,37.0,30.11,WSW,244,2.0,-999.0,95,-99.99,,,0.04,weatherlink.com 1.10,2013-02-18 05:23:00,
2013-02-17 21:38:00,38.6,37.0,30.10,WSW,244,0.0,-999.0,95,-99.99,,,0.04,weatherlink.com 1.10,2013-02-18 05:38:00,
2013-02-17 21:53:00,38.5,37.0,30.10,WSW,244,0.0,-999.0,95,-99.99,,,0.04,weatherlink.com 1.10,2013-02-18 05:53:00,
2013-02-17 22:08:00,38.4,37.0,30.09,WSW,244,0.0,-999.0,96,-99.99,,,0.04,weatherlink.com 1.10,2013-02-18 06:08:00,
2013-02-17 22:24:00,38.0,37.0,30.09,WSW,244,3.0,-999.0,96,-99.99,,,0.04,weatherlink.com 1.10,2013-02-18 06:24:00,
2013-02-17 22:39:00,37.9,37.0,30.08,WSW,244,2.0,-999.0,96,-99.99,,,0.04,weatherlink.com 1.10,2013-02-18 06:39:00,
2013-02-17 22:54:00,37.8,37.0,30.08,WSW,244,1.0,-999.0,96,-99.99,,,0.04,weatherlink.com 1.10,2013-02-18 06:54:00,
2013-02-17 23:09:00,37.5,37.0,30.08,WSW,244,2.0,-999.0,96,-99.99,,,0.04,weatherlink.com 1.10,2013-02-18 07:09:00,
2013-02-17 23:24:00,37.4,36.0,30.07,WSW,245,3.0,-999.0,96,-99.99,,,0.04,weatherlink.com 1.10,2013-02-18 07:24:00,
2013-02-17 23:39:00,37.6,37.0,30.07,WSW,245,0.0,-999.0,96,-99.99,,,0.04,weatherlink.com 1.10,2013-02-18 07:39:00,
2013-02-17 23:54:00,37.7,37.0,30.07,WSW,248,2.0,-999.0,96,-99.99,,,0.04,weatherlink.com 1.10,2013-02-18 07:54:00,